www.pogodaiklimat.ru

Погода и климат >> Архив погоды >> Россия >> Приморский край >> Тимирязевский


ПОГОДА в Тимирязевском

  • Прогноз погоды в Тимирязевском
  • Монитор погоды в Тимирязевском
  • Климат города

АРХИВ ПОГОДЫ в Тимирязевском

Время (UTC), дата Ветер
(напр.,м/с)
 
Видим.   Явления Облачность Т
(С)
Тd
(С)
f
(%)
Тe
(С)
Тes
(С)
Комфортность P
(гПа)
Po
(гПа)
Тmin
(С)
Tmax
(С)
R
(мм)
R24
(мм)
S
(см)
03 8.12 СЗ 6 20 км 3/3 600 м
[Sc]
-13.2 -27.1 30 -22 -21 1026.2 1021.5
06 8.12 СЗ 5
{11}
50 км 1/1 600 м
[Sc]
-11.8 -26.7 28 -20 -19 1024.8 1020.1
09 8.12 СЗ 2 50 км 1/1 600 м
[Sc]
-15.2 -23.4 49 -20 -20 1026.7 1021.9 -11.8
12 8.12 СЗ 1 50 км ясно -16.3 -22.8 57 -19 -19 1028.5 1023.7
15 8.12 ЮВ 1 50 км ясно -16.8 -23.5 56 -20 -20 1030.1 1025.3
18 8.12 СЗ 1 50 км ясно -17.0 -23.7 56 -20 -20 1031.0 1026.2
21 8.12 Ю 3 50 км ясно -17.5 -23.4 60 -25 -25 1030.7 1025.9 -18.4
00 9.12 Ю 2 20 км ясно -15.7 -22.7 55 -21 -20 1031.9 1027.1
03 9.12 СЗ 6 20 км ясно -10.0 -23.7 32 -18 -17 1031.4 1026.7
06 9.12 С 5
{12}
20 км 4/0
[Ci fib]
-9.0 -23.9 29 -16 -16 1031.2 1026.5
09 9.12 СВ 2 20 км ясно -12.7 -22.8 43 -17 -17 1032.9 1028.2 -9.0
12 9.12 СВ 1 20 км ясно -16.5 -21.5 65 -19 -19 1034.6 1029.8
15 9.12 В 1 20 км ясно -17.5 -21.8 69 -20 -20 1036.4 1031.5
18 9.12 штиль 0 20 км ясно -18.9 -21.8 78 -19 -19 1037.3 1032.4
21 9.12 ЮВ 1 20 км ясно -19.3 -22.2 78 -22 -22 1037.6 1032.7 -20.1
00 10.12 ЮВ 1 4000 м дым ясно -17.8 -21.1 75 -21 -20 1038.6 1033.8 -20.4
03 10.12 С 2 10 км ясно -10.6 -20.6 44 -15 -12 1037.7 1033.0
06 10.12 СВ 2 20 км ясно -8.8 -21.5 35 -13 -12 1036.0 1031.3
09 10.12 СВ 1 20 км ясно -12.6 -20.1 53 -15 -15 1037.0 1032.3 -8.7
12 10.12 штиль 0 20 км ясно -14.7 -20.8 60 -15 -15 1037.9 1033.1
15 10.12 штиль 0 20 км ясно -17.9 -20.7 79 -18 -18 1038.4 1033.5
18 10.12 ЮЗ 1 20 км ясно -18.7 -21.3 80 -22 -22 1037.9 1033.0
21 10.12 штиль 0 20 км ясно -20.0 -22.5 80 -20 -20 1037.4 1032.5 -20.0
00 11.12 СВ 1 4000 м дым 3/0
[Ci fib]
-18.4 -21.1 79 -21 -21 1037.2 1032.3 -20.4
03 11.12 СЗ 2 10 км 8/0
[Ci fib]
-11.7 -17.8 61 -16 -13 1035.2 1030.5
06 11.12 С 2 20 км 10/0
[Cs]
-9.4 -19.6 43 -14 -13 1032.2 1027.5
09 11.12 СЗ 1 20 км 10/0
[As trans]
-10.6 -16.6 61 -13 -13 1031.7 1027.0 -9.3
12 11.12 С 2 20 км 10/0
[As op]
-11.1 -17.5 59 -16 -16 1031.3 1026.6
15 11.12 С 2 20 км 10/0
[Ci fib]
-13.2 -17.6 69 -18 -18 1031.0 1026.3
18 11.12 С 2 20 км ясно -15.6 -18.9 76 -21 -21 1030.6 1025.8
21 11.12 СЗ 2 20 км ясно -18.3 -20.7 81 -24 -24 1030.5 1025.7 -18.3
00 12.12 СЗ 1 10 км ясно -16.6 -19.8 76 -19 -19 1031.2 1026.4 -19.0
03 12.12 С 4 20 км ясно -9.6 -19.9 43 -16 -14 1029.8 1025.1
06 12.12 С 4 20 км ясно -8.1 -21.3 34 -14 -14 1028.1 1023.5
09 12.12 С 1 20 км ясно -12.2 -20.1 52 -14 -14 1028.6 1023.9 -8.0
12 12.12 З 1 20 км ясно -16.7 -20.2 74 -19 -19 1029.3 1024.5
15 12.12 штиль 0 20 км ясно -17.9 -20.6 79 -18 -18 1028.8 1024.0
18 12.12 ЮЗ 2 20 км ясно -16.6 -19.8 76 -22 -22 1028.0 1023.2
21 12.12 штиль 0 20 км ясно -16.0 -18.6 80 -16 -16 1027.0 1022.2 -18.1
00 13.12 штиль 0 4000 м дым ясно -15.6 -18.4 79 -16 -15 1027.0 1022.2
03 13.12 СЗ 2 10 км 3/0
[Ci fib]
-10.0 -15.9 62 -14 -11 1025.8 1021.1
06 13.12 С 5 10 км 8/0
[Ci fib]
-7.2 -16.4 48 -14 -14 1025.1 1020.5
09 13.12 СВ 2 10 км 10/0
[Ci fib]
-11.9 -16.4 69 -16 -16 1027.6 1022.9 -7.0
12 13.12 С 1 10 км 10/0
[Ci fib]
-14.1 -16.8 80 -17 -17 1029.4 1024.6
15 13.12 штиль 0 10 км слабый ливневой снег 10/10 600 м
[Cb cap]
-12.6 -14.5 86 -13 -13 1030.9 1026.2
18 13.12 СВ 1 10 км {ливн. осадки} 4/4 600 м
[Cb cap]
-14.7 -16.5 86 -17 -17 1032.6 1027.8
21 13.12 В 1 10 км ясно -16.4 -19.8 75 -19 -19 1033.8 1029.0 -16.6 0.0 <0.5
00 14.12 В 2 10 км ясно -15.0 -19.3 70 -20 -19 1035.2 1030.4 -16.8
03 14.12 СЗ 5 20 км 4/1 1000 м
[Cu hum Ci fib]
-9.5 -19.1 45 -17 -15 1034.8 1030.1
06 14.12 С 4 20 км 1/1 600 м
[Sc]
-8.4 -21.6 34 -15 -14 1034.0 1029.3
09 14.12 С 2 20 км ясно -12.3 -19.9 53 -17 -17 1035.0 1030.2 -8.3
12 14.12 СВ 2 20 км ясно -14.7 -20.7 60 -20 -20 1035.3 1030.5
15 14.12 Ю 1 20 км ясно -16.9 -20.3 75 -20 -20 1035.0 1030.1
18 14.12 штиль 0 20 км ясно -18.8 -21.8 77 -19 -19 1034.2 1029.3
21 14.12 СВ 1 20 км ясно -20.2 -23.0 78 -23 -23 1033.0 1028.1 -20.2 <0.5

 

Местоположение метеостанции Тимирязевский (Приморский край, Россия): широта 43.88 долгота 131.90 высота над уровнем моря 36 м.

В архиве по умолчанию представлена погода в Тимирязевском за последнюю неделю. Архивные данные за месяц целиком и за предыдущие месяцы, начиная с января 2011 года, Вы можете получить, выбрав интересующий диапазон дат из раскрывающегося списка и нажав кнопку "Ввод!".


*Определитесь, кто Вы:
робот инопланетянин человек

Внимание! Время в таблицах - всемирное. Для получения местного времени необходимо прибавить поправку, которая в Тимирязевском равна 10 ч.

Смотрите также архив погоды в соседних городах и на ближайших метеорологических станциях:

Погода в Полтавке (Приморский край, Россия) (51 км)
Погода в Хороль (Приморский край, Россия) (62 км)
Погода в Многоудобном (Приморский край, Россия) (65 км)
Погода в Пограничном (Приморский край, Россия) (75 км)
Погода в Suifenhe (Китай) (82 км)
Погода в Владивостоке (Приморский край, Россия) (85 км)
Погода в Барабаше (Приморский край, Россия) (86 км)
Погода в Анучино (Приморский край, Россия) (89 км)
Погода на Мысе Назимова (Приморский край, Россия) (92 км)
Погода в Астраханке (Приморский край, Россия) (94 км)

Пояснения к столбцам:

Ветер - указаны скорость ветра в м/с - средняя за 10 мин, порывы в срок и между сроками (в фигурных скобках) и направление, откуда дует ветер: С - северный, СВ - северо-восточный, В - восточный, ЮВ - юго-восточный, Ю - южный, ЮЗ - юго-западный, З - западный, СЗ - северо-западный.
Видимость - горизонтальная дальность видимости в метрах или километрах. При видимости от 1 до 10 км при отсутствии осадков обычно наблюдается дымка, при ухудшении видимости до 1 км и менее - туман. В сухую погоду видимость может ухудшаться дымом, пылью или мглою.
Явления - указаны атмосферные явления, наблюдавшиеся в срок или в последний час перед сроком; фигурными скобками обозначены явления, наблюдавшиеся между сроками (за 1-3 часа до срока); квадратными скобками обозначены град или гололедные отложения с указанием их диаметра в мм.
Облачность - указаны через наклонную черту общая и нижняя облачность в баллах и высота нижней границы облаков в метрах; квадратными скобками обозначены формы облаков: Ci - перистые, Cs - перисто-слоистые, Cc - перисто-кучевые, Ac - высококучевые, As - высокослоистые, Sc - слоисто-кучевые, Ns - слоисто-дождевые, Cu - кучевые, Cb - кучево-дождевые. Подробнее классификацию облаков см. в Атласе облаков (PDF).
T - Температура воздуха - температура, измеренная на высоте 2 м над землей.
Td - Температура точки росы - температура, при понижении до которой содержащийся в воздухе водяной пар достигнет насыщения.
f - Относительная влажность воздуха - влажноcть воздуха, измеренная на высоте 2 м над землей.
Te - Эффективная температура - температура, которую ощущает одетый по сезону человек в тени. Характеристика душности погоды. При расчете учитывается влияние влажности воздуха и скорости ветра на теплоощущения человека.
Tes - Эффективная температура на солнце - температура, которую ощущает человек, с поправкой на солнечный нагрев. Характеристика знойности погоды. Зависит от высоты солнца над горизонтом, облачности и скорости ветра. Ночью, в пасмурную погоду, а также при ветре 12 м/с и более поправка равна нулю.
P - Атмосферное давление - приведенное к уровню моря атмосферное давление.
Po - Атмосферное давление - измеренное на уровне метеостанции атмосферное давление.
Tmin - Минимальная температура - минимум температуры воздуха на высоте 2 м над землей.
Tmax - Максимальная температура - максимум температуры воздуха на высоте 2 м над землей.
R - Количество осадков - Количество выпавших осадков за период времени, мм. При наведении курсора мыши на число - период времени, за который выпало указанное количество осадков.
R24 - Количество осадков - Количество выпавших осадков за 24 часа, мм.
S - Снежный покров - Высота снежного покрова, см. При наведении курсора мыши на число - состояние снежного покрова и степень покрытия местности в баллах.